Location: Unspecified
(30.2330°N, 120.0460°E)
Time: 04:07:50
(UTC+00:00)

Daily predictions for brighter satellites

Satellite Brightness Start Highest point End
(mag) Time Altitude Azimuth Time Altitude Azimuth Time Altitude Azimuth
Cosmos 2333 Rocket 4.5 10:09:06 10° NW 10:13:59 31° WSW 10:18:51 10° SSW
Sakura Rocket 3.6 10:09:46 10° WSW 10:14:21 74° S 10:20:41 10° E
Ariane Rocket 4.1 10:09:36 10° S 10:14:32 52° W 10:19:30 10° NNW
USA 215 3.8 10:11:56 10° ENE 10:17:57 39° SE 10:23:56 10° SSW
Okean 3 3.4 10:17:26 10° N 10:21:35 63° E 10:25:44 10° SSE
Cosmos 44 Rocket 3.5 10:18:32 10° NNW 10:23:31 54° ENE 10:28:33 10° SE
COSMO-SKYMED 1 3.7 10:20:02 10° N 10:24:13 48° WNW 10:28:23 10° SSW
ERS-2 3.5 10:21:47 10° ESE 10:24:26 19° ENE 10:27:06 10° NNE
Iridium 4 Rocket 3.6 10:20:22 10° NNE 10:24:36 37° E 10:28:33 10° SSE
Sich 1 Rocket 3.6 10:20:29 10° S 10:24:55 61° E 10:29:20 10° NNE
MTI 4.4 10:22:05 10° N 10:25:14 61° WNW 10:28:23 10° SSW
Cosmos 2227 4.2 10:22:21 10° S 10:28:00 65° ESE 10:33:40 10° NNE
GPS 2-05 Rocket1 2.9 10:26:41 10° W 10:29:52 61° NNW 10:32:50 11° ENE
ALOS 2.6 10:28:29 10° S 10:33:07 71° WSW 10:37:47 10° NNW
Okean 2 Rocket 3.7 10:31:37 10° SSE 10:35:31 33° E 10:39:27 10° NNE
H-2A R/B 3.0 10:32:07 10° SSE 10:35:51 46° ENE 10:39:37 10° N
Meteor 1-18 Rocket 4.1 10:31:19 10° N 10:36:52 69° E 10:42:22 10° SSE
CENTAUR R/B 4.1 10:33:37 10° WSW 10:38:53 33° NW 10:44:45 10° N
Cosmos 921 Rocket 3.4 10:34:47 10° N 10:39:05 43° ENE 10:43:17 10° SE
Cosmos 44 3.7 10:34:14 10° NNW 10:39:23 77° WSW 10:44:43 10° SSE
Cosmos 1674 Rocket 4.5 10:38:30 10° NNW 10:42:42 51° W 10:46:52 10° S
Cosmos 1452 Rocket 4.0 10:40:50 10° NNW 10:46:02 63° WSW 10:51:11 10° S
Cosmos 1513 Rocket 4.4 10:40:50 10° N 10:47:08 76° E 10:53:17 10° S
FENGYUN 3A 4.4 10:42:02 10° S 10:47:19 57° W 10:52:39 10° NNW
Meteor 1-11 Rocket 4.0 10:44:39 10° SSE 10:49:50 42° E 10:55:07 10° NNE
HJ-1C 4.2 10:47:10 10° SE 10:50:10 29° ENE 10:53:10 10° NNE
SJ-6B 3.7 10:47:12 10° SE 10:50:22 26° ENE 10:53:37 10° NNE
Cosmos 2251 Rocket 4.0 10:48:02 10° SSE 10:52:44 35° E 10:57:27 10° NE
ARGOS Delta rocket 3.9 10:52:49 10° NNE 10:57:17 45° E 11:01:33 10° S
SPOT 3 Rocket 3.9 10:53:11 10° S 10:58:21 70° WSW 11:03:34 10° NNW
FREGAT/IRIS 2.4 10:57:48 10° SSE 11:00:44 71° ENE 11:03:41 10° N
CZ-2D R/B 4.0 10:59:07 20° ESE 11:01:03 31° ENE 11:04:30 10° NNE
CZ-4C R/B 4.2 10:56:28 10° N 11:01:31 19° NE 11:03:23 18° ENE
SeaSat 1 3.8 11:03:28 19° ENE 11:03:28 19° ENE 11:06:54 10° NNE
FengYun 1-2 T 4.1 10:57:58 10° SSE 11:03:28 82° ENE 11:08:59 10° N
Meteor 1-4 Rocket 2.3 11:00:14 10° S 11:03:42 75° E 11:07:15 10° N
Tiangong 2 3.0 11:04:31 10° W 11:07:16 27° SW 11:09:39 12° SSE
Cosmos 1602 4.3 11:03:55 10° SSW 11:07:45 60° W 11:11:36 10° N
Tsikada Rocket 4.1 11:02:29 10° S 11:08:54 86° W 11:15:21 10° N
Okean 1 3.9 11:08:11 10° NNW 11:12:05 57° W 11:15:58 10° S
ATLAS CENTAUR R/B 3.8 11:12:11 10° NNE 11:12:25 11° NNE 11:12:25 11° NNE
SL-16 R/B 3.5 11:12:17 10° NW 11:17:32 41° WSW 11:22:47 10° S
Cosmos 1975 Rocket 3.2 11:15:39 10° N 11:20:06 76° W 11:24:34 10° S
Envisat 2.9 11:21:17 10° SSE 11:26:16 60° ENE 11:31:16 10° N
COSMOS 2455 3.3 11:22:11 10° SW 11:28:06 62° WNW 11:34:05 10° NNE
Resurs 01 Rocket 3.4 11:38:14 20° NNE 11:38:14 20° NNE 11:39:43 10° N
Cosmos 1603 3.5 11:31:05 10° NNW 11:36:44 83° ENE 11:40:00 26° SSE
Cosmos 1536 2.9 11:33:58 10° S 11:37:58 77° W 11:42:02 10° N
Lacrosse 5 rocket 1.5 11:37:56 10° SW 11:41:06 59° WSW 11:41:06 59° WSW
Cosmos 2263 Rocket 2.4 11:36:09 10° SSW 11:41:39 67° WNW 11:47:13 10° NNE
Cosmos 1110 Rocket 4.1 11:43:56 10° NNW 11:49:14 77° WSW 11:51:48 31° S
OAO 2 Rocket 3.6 11:48:12 10° WNW 11:52:45 55° N 11:52:45 55° N
